Regional Weather Roundup
Issued by NWS

Home | Current Version | Previous Version | Graphics & Text | Print | Product List | Glossary On
Versions: 1 2 3 4 5 6 7 8 9 10 11 12 13 14 15 16 17 18 19 20 21 22 23 24 25 26 27 28 29 30 31 32 33 34 35 36 37 38 39 40 41 42 43 44 45 46 47 48 49 50
000
ASUS43 KLMK 300410
RWRKY
KENTUCKY REGIONAL WEATHER ROUNDUP
NATIONAL WEATHER SERVICE LOUISVILLE KY
1200 AM EDT THU OCT 30 2014

NOTE "FAIR" INDICATES FEW OR NO CLOUDS BELOW 12,000 FEET
WITH NO SIGNIFICANT WEATHER AND/OR OBSTRUCTIONS TO VISIBILITY.

KYZ001>023-026-027-061>063-070>075-300500-
WESTERN AND SOUTH CENTRAL KENTUCKY

CITY           SKY/WX    TMP DP  RH WIND       PRES   REMARKS
PADUCAH        CLEAR     41  39  93 CALM      30.16R
HENDERSON      CLEAR     39  34  81 CALM      30.16R
OWENSBORO      CLEAR     43  38  82 CALM      30.16R
HOPKINSVILLE   CLEAR     46  38  74 N5        30.14S
BOWLING GREEN  CLEAR     49  36  61 N3        30.15S
GLASGOW        CLEAR     47  36  66 CALM      30.14S
$$

KYZ024-025-028>034-038-045-046-053-300500-
NORTH CENTRAL KENTUCKY

CITY           SKY/WX    TMP DP  RH WIND       PRES   REMARKS
LOUISVILLE/SDF PTCLDY    48  36  63 VRB7      30.15R
LOUISVILLE/LOU CLEAR     47  36  65 NE3       30.16R
FORT KNOX      CLEAR     38  35  89 CALM      30.13S
$$

KYZ035>037-039>044-047>052-055>060-089>105-300500-
NORTHEAST KENTUCKY

CITY           SKY/WX    TMP DP  RH WIND       PRES   REMARKS
LEXINGTON      CLEAR     46  36  68 N6        30.13S
COVINGTON      PTCLDY    41  33  73 CALM      30.13S
FRANKFORT      CLEAR     46  35  65 N5        30.13S
$$

KYZ054-064>069-076>088-106>120-300500-
SOUTHEAST KENTUCKY

CITY           SKY/WX    TMP DP  RH WIND       PRES   REMARKS
JACKSON        CLEAR     50  34  54 N6        30.10S
LONDON         CLEAR     46  39  76 CALM      30.12R
SOMERSET       CLEAR     45  37  76 CALM      30.14R
MIDDLESBORO    CLEAR     40  40  98 CALM      30.12S
MONTICELLO     CLEAR     38  38 100 CALM      30.15S
$$




USA.gov is the U.S. government's official web portal to all federal, state and local government web resources and services.